Le nostre stazioni meteo in Italia

Pubblicità
Il mio iltempo24.it
Messina, Italia (16420): Temperatura & dewpoint: 16.10.2018 08:00:00 - 22.10.2018 08:00:00 (CEST)Messina, Italia (16420): velocità del vento: 16.10.2018 08:00:00 - 22.10.2018 08:00:00 (CEST)Messina, Italia (16420): direzione del vento: 16.10.2018 08:00:00 - 22.10.2018 08:00:00 (CEST)Messina, Italia (16420): reduced air pressure: 16.10.2018 08:00:00 - 22.10.2018 08:00:00 (CEST)Messina, Italia (16420): visibility: 16.10.2018 08:00:00 - 22.10.2018 08:00:00 (CEST)Messina, Italia (16420): ore di luce: 16.10.2018 08:00:00 - 22.10.2018 08:00:00 (CEST)
Data & Tempo tt [°C] td [°C] ff [km/h] ff [kn] dd ppp [hPa] vv [km] sd [min]
22.10.2018 08:00:00 16,4 14,4 11 6 ENE 1012,5 6 0
22.10.2018 07:00:00 17,2 15,2 8 4 E 1012,0 4,0 -
22.10.2018 06:00:00 18,0 16,3 15 8 SO 1011,4 12 -
22.10.2018 05:00:00 18,4 16,4 16 9 SO 1011,5 12 -
22.10.2018 04:00:00 19,4 15,7 21 11 SO 1011,5 12 -
22.10.2018 03:00:00 19,0 14,3 13 7 SO 1012,7 12 -
22.10.2018 02:00:00 19,2 16,1 0 0 N 1013,4 12 -
22.10.2018 01:00:00 19,4 17,4 8 4 OSO 1013,9 14 -
22.10.2018 00:00:00 19,4 17,4 2 1 NNE 1014,3 14 -
21.10.2018 23:00:00 19,8 17,4 4 2 NNO 1014,4 12 -
21.10.2018 22:00:00 19,6 17,0 5 3 N 1014,3 12 -
21.10.2018 21:00:00 19,4 17,2 4 2 N 1014,3 12 -
21.10.2018 20:00:00 19,8 16,7 4 2 NNO 1014,5 12 -
21.10.2018 19:00:00 20,8 18,0 11 6 ENE 1014,4 12 -
21.10.2018 18:00:00 21,8 17,8 9 5 ONO 1014,3 12 0
21.10.2018 17:00:00 22,2 18,0 8 4 ONO 1015,0 14 0
21.10.2018 16:00:00 22,6 17,5 8 4 SO 1015,2 14 18
21.10.2018 15:00:00 23,2 17,0 11 6 SSO 1015,6 14 42
21.10.2018 14:00:00 22,4 17,3 11 6 SSO 1016,3 14 36
21.10.2018 13:00:00 23,2 16,7 15 8 SSO 1016,7 18 54
21.10.2018 12:00:00 22,6 16,6 9 5 S 1017,5 20 30
21.10.2018 11:00:00 21,8 16,5 5 3 S 1017,8 20 54
21.10.2018 10:00:00 21,2 15,7 5 3 SSO 1018,0 20 54
21.10.2018 09:00:00 19,2 15,7 0 0 N 1017,9 20 6
21.10.2018 08:00:00 18,2 14,7 4 2 O 1017,6 16 0
21.10.2018 07:00:00 19,0 15,5 4 2 O 1018,3 16 -
21.10.2018 06:00:00 19,4 17,4 8 4 NO 1018,3 16 -
21.10.2018 05:00:00 19,8 17,9 8 4 NO 1018,2 16 -
21.10.2018 04:00:00 20,0 18,1 4 2 N 1018,4 16 -
21.10.2018 03:00:00 20,0 17,4 8 4 NO 1018,6 16 -
21.10.2018 02:00:00 20,2 17,8 9 5 NO 1018,9 16 -
21.10.2018 01:00:00 20,0 17,8 9 5 NO 1019,3 16 -
21.10.2018 00:00:00 20,0 17,8 5 3 NNO 1019,3 16 -
20.10.2018 23:00:00 20,2 18,0 5 3 NO 1019,3 16 -
20.10.2018 22:00:00 20,6 18,4 8 4 NNO 1019,2 16 -
20.10.2018 21:00:00 20,8 18,4 8 4 NO 1019,2 16 -
20.10.2018 20:00:00 21,2 18,2 4 2 NNO 1018,6 16 -
20.10.2018 19:00:00 21,4 18,2 4 2 NO 1018,4 14 0
20.10.2018 18:00:00 22,4 17,8 4 2 N 1018,4 16 18
20.10.2018 17:00:00 23,6 16,9 13 7 ENE 1018,5 14 60
20.10.2018 16:00:00 24,4 17,2 13 7 ENE 1018,5 14 60
20.10.2018 15:00:00 24,2 19,3 8 4 ENE 1018,7 14 60
20.10.2018 14:00:00 24,8 18,5 9 5 SE 1018,8 14 60
20.10.2018 13:00:00 24,6 18,1 9 5 SE 1018,6 16 60
20.10.2018 12:00:00 24,2 17,7 13 7 ENE 1018,2 16 60
20.10.2018 11:00:00 24,0 17,7 13 7 ENE 1018,2 18 60
20.10.2018 10:00:00 23,4 16,2 8 4 ENE 1018,1 18 60
20.10.2018 09:00:00 22,0 17,2 5 3 NO 1017,6 16 30
20.10.2018 08:00:00 20,6 18,0 8 4 NNO 1017,3 14 -
20.10.2018 07:00:00 20,0 17,4 4 2 ENE 1017,0 12 -
20.10.2018 06:00:00 19,6 17,0 4 2 NNE 1016,9 12 -
20.10.2018 05:00:00 19,8 17,8 0 0 N 1016,5 10 -
20.10.2018 04:00:00 19,8 17,9 0 0 N 1016,4 12 -
20.10.2018 03:00:00 20,0 18,1 0 0 N 1016,4 12 -
20.10.2018 02:00:00 20,0 18,1 4 2 ONO 1016,4 12 -
20.10.2018 01:00:00 20,0 18,0 2 1 N 1016,2 12 -
20.10.2018 00:00:00 20,8 18,7 5 3 NNO 1015,9 12 -
19.10.2018 23:00:00 21,2 19,1 8 4 NNO 1015,8 12 -
19.10.2018 22:00:00 21,4 18,2 4 2 N 1015,5 12 -
19.10.2018 21:00:00 22,0 18,0 2 1 N 1015,3 12 -
19.10.2018 20:00:00 23,0 17,7 0 0 N 1014,5 16 -
19.10.2018 19:00:00 23,2 17,7 0 0 N 1013,3 16 -
19.10.2018 18:00:00 24,0 17,0 9 5 SSO 1012,3 16 36
19.10.2018 17:00:00 24,4 18,1 13 7 SSO 1012,3 16 60
19.10.2018 16:00:00 25,4 17,1 15 8 SSO 1012,3 16 60
19.10.2018 15:00:00 26,4 13,2 18 10 SSO 1012,2 16 60
19.10.2018 14:00:00 26,0 16,6 9 5 SSO 1012,2 16 60
19.10.2018 13:00:00 25,0 18,0 9 5 ENE 1012,5 16 60
19.10.2018 12:00:00 23,8 17,8 8 4 E 1013,0 16 60
19.10.2018 11:00:00 23,0 18,5 15 8 SSO 1013,0 16 60
19.10.2018 10:00:00 22,0 17,8 18 10 SSO 1012,5 16 42
19.10.2018 09:00:00 21,2 18,6 13 7 SSO 1012,3 10 0
19.10.2018 08:00:00 21,0 17,4 2 1 O 1011,1 16 0
19.10.2018 07:00:00 20,2 18,0 4 2 N 1010,4 14 -
19.10.2018 06:00:00 20,4 18,0 8 4 N 1009,4 14 -
19.10.2018 05:00:00 21,0 17,0 2 1 ONO 1010,4 14 -
19.10.2018 04:00:00 21,2 17,0 4 2 N 1010,3 12 -
19.10.2018 03:00:00 21,0 17,6 9 5 N 1010,3 14 -
19.10.2018 02:00:00 20,6 18,0 9 5 N 1011,4 9 -
19.10.2018 01:00:00 21,4 17,6 5 3 O 1012,5 14 -
19.10.2018 00:00:00 21,6 17,4 2 1 NNO 1012,4 14 -
18.10.2018 23:00:00 22,0 17,6 2 1 ONO 1012,2 14 -
18.10.2018 22:00:00 22,0 18,0 13 7 O 1011,4 14 -
18.10.2018 21:00:00 22,0 18,4 16 9 OSO 1010,9 14 -
18.10.2018 20:00:00 22,4 18,2 26 14 SO 1010,2 15 -
18.10.2018 19:00:00 22,4 17,8 2 1 SSO 1009,1 15 -
18.10.2018 18:00:00 23,0 16,3 16 9 OSO 1008,3 18 0
18.10.2018 17:00:00 22,8 17,5 24 13 SO 1010,1 10 -
18.10.2018 16:00:00 23,2 16,0 29 16 SO 1010,0 18 0
18.10.2018 15:00:00 23,0 15,8 34 18 SO 1009,9 18 0
18.10.2018 14:00:00 23,4 15,7 34 18 SO 1010,1 18 0
18.10.2018 13:00:00 22,8 17,0 29 16 SO 1010,7 18 0
18.10.2018 12:00:00 22,8 16,5 35 19 SO 1011,1 18 18
18.10.2018 11:00:00 22,6 15,9 34 18 SO 1011,2 10 6
18.10.2018 10:00:00 22,8 16,1 34 18 SO 1011,2 18 48
18.10.2018 09:00:00 22,0 17,2 28 15 SO 1011,0 18 24
18.10.2018 08:00:00 21,2 17,6 29 16 SO 1010,3 18 0
18.10.2018 07:00:00 21,2 18,0 21 11 SO 1010,5 16 -
18.10.2018 06:00:00 21,2 18,2 22 12 SO 1011,0 12 -
18.10.2018 05:00:00 21,6 17,0 24 13 SO 1011,2 12 -
18.10.2018 04:00:00 21,4 17,0 22 12 SO 1011,6 12 -
18.10.2018 03:00:00 21,4 18,0 22 12 SO 1012,4 12 -
18.10.2018 02:00:00 21,4 18,6 22 12 SO 1012,7 12 -
18.10.2018 01:00:00 21,4 18,8 21 11 SO 1013,4 12 -
18.10.2018 00:00:00 21,4 19,2 22 12 SO 1013,5 12 -
17.10.2018 23:00:00 21,6 18,6 22 12 SO 1013,6 12 -
17.10.2018 22:00:00 21,6 18,0 22 12 SO 1013,5 12 -
17.10.2018 21:00:00 21,8 19,0 18 10 SO 1013,5 12 -
17.10.2018 20:00:00 22,0 19,2 16 9 SO 1013,4 16 -
17.10.2018 19:00:00 22,0 18,8 18 10 SO 1013,3 16 -
17.10.2018 18:00:00 22,2 18,8 18 10 SO 1013,3 16 18
17.10.2018 17:00:00 23,2 19,0 24 13 SO 1013,4 16 48
17.10.2018 16:00:00 23,8 19,1 24 13 SSO 1013,9 16 60
17.10.2018 15:00:00 23,8 18,7 28 15 SSO 1014,1 16 42
17.10.2018 14:00:00 24,0 18,4 24 13 SSO 1014,8 16 60
17.10.2018 13:00:00 23,8 19,1 26 14 SSO 1015,1 16 42
17.10.2018 12:00:00 23,0 18,3 26 14 SSO 1015,7 16 36
17.10.2018 11:00:00 23,6 17,7 26 14 SO 1015,7 16 60
17.10.2018 10:00:00 22,4 18,0 18 10 SO 1015,7 16 36
17.10.2018 09:00:00 21,8 17,9 21 11 SO 1015,6 16 6
17.10.2018 08:00:00 21,4 18,0 21 11 SO 1015,6 16 0
17.10.2018 07:00:00 21,2 17,2 16 9 SO 1015,7 14 -
17.10.2018 06:00:00 21,0 18,4 13 7 SO 1015,8 14 -
17.10.2018 05:00:00 21,0 18,2 13 7 SO 1015,8 10 -
17.10.2018 04:00:00 21,0 18,4 11 6 SO 1016,1 12 -
17.10.2018 03:00:00 21,0 18,4 15 8 SO 1016,4 12 -
17.10.2018 02:00:00 21,0 18,2 13 7 SO 1016,7 12 -
17.10.2018 01:00:00 21,0 18,4 15 8 SO 1017,1 12 -
17.10.2018 00:00:00 21,4 17,6 15 8 SO 1017,0 12 -
16.10.2018 23:00:00 21,4 17,8 18 10 SO 1017,1 12 -
16.10.2018 22:00:00 21,4 18,4 15 8 SO 1017,1 12 -
16.10.2018 21:00:00 21,4 19,0 9 5 SO 1016,7 12 -
16.10.2018 20:00:00 21,6 19,4 11 6 SO 1016,6 12 -
16.10.2018 19:00:00 22,0 19,4 13 7 SSO 1016,4 14 0
16.10.2018 18:00:00 22,4 19,6 15 8 SO 1016,3 18 0
16.10.2018 17:00:00 23,0 19,4 13 7 SO 1016,3 20 6
16.10.2018 16:00:00 23,8 18,9 18 10 SSO 1016,4 20 60
16.10.2018 15:00:00 23,8 18,7 22 12 SSO 1016,3 20 60
16.10.2018 14:00:00 24,0 17,5 22 12 SO 1016,4 20 60
16.10.2018 13:00:00 24,2 17,2 18 10 SSO 1016,4 20 60
16.10.2018 12:00:00 23,8 17,5 24 13 SO 1016,4 20 60
16.10.2018 11:00:00 23,4 17,6 16 9 SO 1016,4 20 60
16.10.2018 10:00:00 22,8 17,5 16 9 SSO 1016,3 20 60
16.10.2018 09:00:00 21,8 17,6 16 9 SO 1015,8 20 48
16.10.2018 08:00:00 21,0 16,8 11 6 SO 1015,4 20 0

tt = Temperatura
td = dewpoint
ff = velocità del vento
dd = direzione del vento
ppp = reduced air pressure
vv = visibility
sd = ore di luce

Stazioni seguenti

WeatherPro
AMSI
MeteoEarth